Flag for Netherlands Weather past 2 weeks in Eindhoven, Netherlands

Now
66 °F

Partly sunny.


Feels Like: 66 °F
Forecast: 52 / 71 °F
Wind: 2 mph from Southwest

Location: Eindhoven Airport

Current Time: Oct 2, 2014 at 12:53:36 PM

Latest Report: Oct 2, 2014 at 12:25 PM


Visibility: N/A

Pressure: 30.36 "Hg

Humidity: 78%

Dew point: 59 °F

Location of EindhovenLocation

Historic Weather in Eindhoven — Graph

°F

Eindhoven temperature yesterday

Maximum temperature yesterday: 72 °F (at 3:55 PM)
Minimum temperature yesterday: 54 °F (at 3:55 AM)
Average temperature yesterday: 61 °F

Past Weeks' High & Low Weather Summary

 TemperatureHumidityPressure
High77 °F (Sep 17, 2:25 PM)100% (Sep 18, 1:01 AM)30.39 "Hg (Sep 18, 1:01 AM)
Low41 °F (Sep 23, 2:25 AM)47% (Sep 17, 3:25 PM)29.80 "Hg (Sep 18, 5:25 AM)
Average60 °F85%30.10 "Hg
* Reported Sep 17 11:25 AM — Oct 2 11:25 AM, Eindhoven, Weather by CustomWeather, © 2014

Note: Actual official high and low records may vary slightly from our data, if they occured in-between our weather recording intervals... More about our weather records

Advertising

Eindhoven weather history for previous 24 hours

 ConditionsComfort  
Time TempWeatherWind HumidityBarometerVisibility
11:25 AM
Oct 2
63 °FMore clouds than sun.1 mph88%30.39 "HgN/A
10:55 AM63 °FLow clouds.2 mph88%30.39 "HgN/A
10:25 AM61 °FFog.2 mph94%30.39 "Hg5 mi
9:55 AM59 °FFog.3 mph94%30.39 "Hg4 mi
9:25 AM59 °FFog.5 mph94%30.36 "Hg3 mi
9:03 AM59 °FFog.5 mph94%30.36 "Hg3 mi
8:25 AM57 °FFog.3 mph100%30.36 "Hg4 mi
7:57 AM55 °FFog.3 mph100%30.36 "Hg3 mi
7:55 AM55 °FFog.3 mph100%30.36 "Hg3 mi
7:25 AM57 °FFog.5 mph94%30.36 "Hg3 mi
7:04 AM57 °FFog.3 mph94%30.36 "Hg4 mi
6:55 AM57 °FFog.3 mph100%30.36 "Hg5 mi
6:25 AM57 °FFog.5 mph100%30.36 "Hg4 mi
5:55 AM57 °FPassing clouds.3 mph100%30.33 "Hg4 mi
5:25 AM57 °FFog.3 mph94%30.36 "Hg3 mi
4:55 AM55 °FFog.2 mph100%30.33 "Hg3 mi
4:25 AM55 °FFog.3 mph94%30.33 "Hg3 mi
3:56 AM55 °FFog.3 mph100%30.33 "Hg3 mi
3:25 AM55 °FFog.2 mph100%30.33 "Hg3 mi
2:55 AM57 °FFog.2 mph94%30.33 "Hg4 mi
2:25 AM57 °FFog.2 mph94%30.33 "Hg5 mi
1:55 AM57 °FFog.3 mph94%30.33 "Hg6 mi
1:25 AM59 °FPassing clouds.5 mph88%30.33 "HgN/A
12:55 AM61 °FMostly cloudy.3 mph88%30.33 "HgN/A
12:25 AM61 °FMostly cloudy.2 mph88%30.33 "HgN/A
11:55 PM
Oct 1
61 °FMostly cloudy.5 mph88%30.33 "HgN/A
11:25 PM61 °FOvercast.2 mph88%30.33 "HgN/A
10:55 PM59 °FMostly cloudy.1 mph94%30.33 "HgN/A
10:25 PM59 °FPassing clouds.3 mph94%30.33 "HgN/A
9:55 PM59 °FPassing clouds.2 mph94%30.33 "HgN/A
9:25 PM57 °FPassing clouds.2 mph100%30.30 "HgN/A
8:55 PM59 °FOvercast.2 mph94%30.30 "HgN/A
8:25 PM59 °FPassing clouds.1 mph94%30.30 "HgN/A
7:55 PM59 °FPassing clouds.1 mph94%30.30 "HgN/A
7:25 PM63 °FPassing clouds.No wind88%30.30 "HgN/A
6:55 PM66 °FMild.No wind78%30.30 "HgN/A
6:25 PM70 °FMild.1 mph64%30.30 "HgN/A
5:55 PM70 °FPassing clouds.3 mph64%30.30 "HgN/A
5:25 PM70 °FPassing clouds.5 mph64%30.27 "HgN/A
4:55 PM72 °FMild.6 mph61%30.27 "HgN/A
4:25 PM70 °FBroken clouds.6 mph64%30.27 "HgN/A
3:55 PM72 °FPassing clouds.7 mph61%30.27 "HgN/A
3:25 PM70 °FOvercast.8 mph64%30.30 "HgN/A
2:55 PM70 °FBroken clouds.8 mph64%30.30 "HgN/A
2:25 PM68 °FPartly sunny.9 mph69%30.30 "HgN/A
2:04 PM68 °FScattered clouds.8 mph73%30.30 "HgN/A
1:55 PM68 °FPassing clouds.9 mph69%30.30 "HgN/A
1:25 PM66 °FPartly sunny.7 mph78%30.30 "HgN/A
12:55 PM64 °FFog.8 mph83%30.30 "Hg6 mi
12:25 PM64 °FFog.8 mph83%30.30 "Hg4 mi
Weather by CustomWeather, © 2014

See weather overviewHow to use our weather pages